Year,Month,Day,Hour,Minute,Value (Times are PST for windspeed in km/hr)
2015,10,30,00,00,4.30
2015,10,30,00,01,0.00
2015,10,30,00,02,0.00
2015,10,30,00,03,0.20
2015,10,30,00,04,0.10
2015,10,30,00,05,2.70
2015,10,30,00,06,1.80
2015,10,30,00,07,4.60
2015,10,30,00,08,4.50
2015,10,30,00,09,1.90
2015,10,30,00,10,0.80
2015,10,30,00,11,0.00
2015,10,30,00,12,0.10
2015,10,30,00,13,1.70
2015,10,30,00,14,0.70
2015,10,30,00,15,1.50
2015,10,30,00,16,0.90
2015,10,30,00,17,7.20
2015,10,30,00,18,5.30
2015,10,30,00,19,3.10
2015,10,30,00,20,0.90
2015,10,30,00,21,3.10
2015,10,30,00,22,1.30
2015,10,30,00,23,0.00
2015,10,30,00,24,0.10
2015,10,30,00,25,2.20
2015,10,30,00,26,3.60
2015,10,30,00,27,3.60
2015,10,30,00,28,0.20
2015,10,30,00,29,2.90
2015,10,30,00,30,1.60
2015,10,30,00,31,0.00
2015,10,30,00,32,1.00
2015,10,30,00,33,1.40
2015,10,30,00,34,5.20
2015,10,30,00,35,0.00
2015,10,30,00,36,0.50
2015,10,30,00,37,0.00
2015,10,30,00,38,0.00
2015,10,30,00,39,0.00
2015,10,30,00,40,0.30
2015,10,30,00,41,1.90
2015,10,30,00,42,2.50
2015,10,30,00,43,0.00
2015,10,30,00,44,0.10
2015,10,30,00,45,0.00
2015,10,30,00,46,0.00
2015,10,30,00,47,0.00
2015,10,30,00,48,0.00
2015,10,30,00,49,0.20
2015,10,30,00,50,5.00
2015,10,30,00,51,1.00
2015,10,30,00,52,0.00
2015,10,30,00,53,0.10
2015,10,30,00,54,0.00
2015,10,30,00,55,0.00
2015,10,30,00,56,1.10
2015,10,30,00,57,0.30
2015,10,30,00,58,0.00
2015,10,30,00,59,0.00
2015,10,30,01,00,0.00
2015,10,30,01,01,0.00
2015,10,30,01,02,0.00
2015,10,30,01,03,0.00
2015,10,30,01,04,0.00
2015,10,30,01,05,0.00
2015,10,30,01,06,0.40
2015,10,30,01,07,0.00
2015,10,30,01,08,0.00
2015,10,30,01,09,0.00
2015,10,30,01,10,0.00
2015,10,30,01,11,0.20
2015,10,30,01,12,0.00
2015,10,30,01,13,0.00
2015,10,30,01,14,0.00
2015,10,30,01,15,0.00
2015,10,30,01,16,0.90
2015,10,30,01,17,1.80
2015,10,30,01,18,0.00
2015,10,30,01,19,0.00
2015,10,30,01,20,0.10
2015,10,30,01,21,0.00
2015,10,30,01,22,2.20
2015,10,30,01,23,1.80
2015,10,30,01,24,0.00
2015,10,30,01,25,0.40
2015,10,30,01,26,1.60
2015,10,30,01,27,1.40
2015,10,30,01,28,0.70
2015,10,30,01,29,0.00
2015,10,30,01,30,0.00
2015,10,30,01,31,0.00
2015,10,30,01,32,0.00
2015,10,30,01,33,0.00
2015,10,30,01,34,2.80
2015,10,30,01,35,0.00
2015,10,30,01,36,0.60
2015,10,30,01,37,0.10
2015,10,30,01,38,0.00
2015,10,30,01,39,0.40
2015,10,30,01,40,0.00
2015,10,30,01,41,0.10
2015,10,30,01,42,0.00
2015,10,30,01,43,0.10
2015,10,30,01,44,0.00
2015,10,30,01,45,0.00
2015,10,30,01,46,0.00
2015,10,30,01,47,0.00
2015,10,30,01,48,0.70
2015,10,30,01,49,0.20
2015,10,30,01,50,0.00
2015,10,30,01,51,0.10
2015,10,30,01,52,0.80
2015,10,30,01,53,0.00
2015,10,30,01,54,0.00
2015,10,30,01,55,0.00
2015,10,30,01,56,0.20
2015,10,30,01,57,0.80
2015,10,30,01,58,0.00
2015,10,30,01,59,0.00
2015,10,30,02,00,0.00
2015,10,30,02,01,0.00
2015,10,30,02,02,0.00
2015,10,30,02,03,0.00
2015,10,30,02,04,0.00
2015,10,30,02,05,0.30
2015,10,30,02,06,0.20
2015,10,30,02,07,0.10
2015,10,30,02,08,0.00
2015,10,30,02,09,2.70
2015,10,30,02,10,2.00
2015,10,30,02,11,0.10
2015,10,30,02,12,0.70
2015,10,30,02,13,1.70
2015,10,30,02,14,4.40
2015,10,30,02,15,1.30
2015,10,30,02,16,0.10
2015,10,30,02,17,3.10
2015,10,30,02,18,2.00
2015,10,30,02,19,0.00
2015,10,30,02,20,0.10
2015,10,30,02,21,3.90
2015,10,30,02,22,0.80
2015,10,30,02,23,0.00
2015,10,30,02,24,0.00
2015,10,30,02,25,0.00
2015,10,30,02,26,0.00
2015,10,30,02,27,0.90
2015,10,30,02,28,0.90
2015,10,30,02,29,0.00
2015,10,30,02,30,0.00
2015,10,30,02,31,0.00
2015,10,30,02,32,0.00
2015,10,30,02,33,0.00
2015,10,30,02,34,0.00
2015,10,30,02,35,0.00
2015,10,30,02,36,0.00
2015,10,30,02,37,0.00
2015,10,30,02,38,0.00
2015,10,30,02,39,0.10
2015,10,30,02,40,0.00
2015,10,30,02,41,0.00
2015,10,30,02,42,1.00
2015,10,30,02,43,1.00
2015,10,30,02,44,0.00
2015,10,30,02,45,0.00
2015,10,30,02,46,0.00
2015,10,30,02,47,0.00
2015,10,30,02,48,0.00
2015,10,30,02,49,0.00
2015,10,30,02,50,0.00
2015,10,30,02,51,0.00
2015,10,30,02,52,0.00
2015,10,30,02,53,0.00
2015,10,30,02,54,0.00
2015,10,30,02,55,0.00
2015,10,30,02,56,0.00
2015,10,30,02,57,0.00
2015,10,30,02,58,0.00
2015,10,30,02,59,0.00
2015,10,30,03,00,0.00
2015,10,30,03,01,0.00
2015,10,30,03,02,0.00
2015,10,30,03,03,0.00
2015,10,30,03,04,0.00
2015,10,30,03,05,0.10
2015,10,30,03,06,0.00
2015,10,30,03,07,0.00
2015,10,30,03,08,0.00
2015,10,30,03,09,0.00
2015,10,30,03,10,0.00
2015,10,30,03,11,0.00
2015,10,30,03,12,0.00
2015,10,30,03,13,0.00
2015,10,30,03,14,0.00
2015,10,30,03,15,0.00
2015,10,30,03,16,0.00
2015,10,30,03,17,0.00
2015,10,30,03,18,0.00
2015,10,30,03,19,0.00
2015,10,30,03,20,0.00
2015,10,30,03,21,0.00
2015,10,30,03,22,0.00
2015,10,30,03,23,0.00
2015,10,30,03,24,0.10
2015,10,30,03,25,0.00
2015,10,30,03,26,0.00
2015,10,30,03,27,0.00
2015,10,30,03,28,0.00
2015,10,30,03,29,0.00
2015,10,30,03,30,0.00
2015,10,30,03,31,0.00
2015,10,30,03,32,0.00
2015,10,30,03,33,0.00
2015,10,30,03,34,0.00
2015,10,30,03,35,0.00
2015,10,30,03,36,0.00
2015,10,30,03,37,0.00
2015,10,30,03,38,0.00
2015,10,30,03,39,0.00
2015,10,30,03,40,0.00
2015,10,30,03,41,0.00
2015,10,30,03,42,0.00
2015,10,30,03,43,0.00
2015,10,30,03,44,1.10
2015,10,30,03,45,0.10
2015,10,30,03,46,0.00
2015,10,30,03,47,0.00
2015,10,30,03,48,0.00
2015,10,30,03,49,0.00
2015,10,30,03,50,1.70
2015,10,30,03,51,3.00
2015,10,30,03,52,1.50
2015,10,30,03,53,0.00
2015,10,30,03,54,0.10
2015,10,30,03,55,0.10
2015,10,30,03,56,1.30
2015,10,30,03,57,0.00
2015,10,30,03,58,0.00
2015,10,30,03,59,0.00
2015,10,30,04,00,0.00
2015,10,30,04,01,0.00
2015,10,30,04,02,0.00
2015,10,30,04,03,0.00
2015,10,30,04,04,0.00
2015,10,30,04,05,0.00
2015,10,30,04,06,0.00
2015,10,30,04,07,0.00
2015,10,30,04,08,0.00
2015,10,30,04,09,0.00
2015,10,30,04,10,0.10
2015,10,30,04,11,0.00
2015,10,30,04,12,0.00
2015,10,30,04,13,0.00
2015,10,30,04,14,0.00
2015,10,30,04,15,0.00
2015,10,30,04,16,0.00
2015,10,30,04,17,0.00
2015,10,30,04,18,0.00
2015,10,30,04,19,4.70
2015,10,30,04,20,3.00
2015,10,30,04,21,0.80
2015,10,30,04,22,0.00
2015,10,30,04,23,0.00
2015,10,30,04,24,0.00
2015,10,30,04,25,0.00
2015,10,30,04,26,0.00
2015,10,30,04,27,0.00
2015,10,30,04,28,0.00
2015,10,30,04,29,0.00
2015,10,30,04,30,0.00
2015,10,30,04,31,0.00
2015,10,30,04,32,0.00
2015,10,30,04,33,0.00
2015,10,30,04,34,0.00
2015,10,30,04,35,0.00
2015,10,30,04,36,0.00
2015,10,30,04,37,0.00
2015,10,30,04,38,0.00
2015,10,30,04,39,0.00
2015,10,30,04,40,0.00
2015,10,30,04,41,0.00
2015,10,30,04,42,0.00
2015,10,30,04,43,0.00
2015,10,30,04,44,0.00
2015,10,30,04,45,0.00
2015,10,30,04,46,0.00
2015,10,30,04,47,0.00
2015,10,30,04,48,0.00
2015,10,30,04,49,0.00
2015,10,30,04,50,0.00
2015,10,30,04,51,0.00
2015,10,30,04,52,0.00
2015,10,30,04,53,0.00
2015,10,30,04,54,0.00
2015,10,30,04,55,0.00
2015,10,30,04,56,0.00
2015,10,30,04,57,0.10
2015,10,30,04,58,2.00
2015,10,30,04,59,0.40
2015,10,30,05,00,0.00
2015,10,30,05,01,0.00
2015,10,30,05,02,0.00
2015,10,30,05,03,0.00
2015,10,30,05,04,0.00
2015,10,30,05,05,0.00
2015,10,30,05,06,0.00
2015,10,30,05,07,0.00
2015,10,30,05,08,0.00
2015,10,30,05,09,0.00
2015,10,30,05,10,0.00
2015,10,30,05,11,0.00
2015,10,30,05,12,0.00
2015,10,30,05,13,0.10
2015,10,30,05,14,0.70
2015,10,30,05,15,0.20
2015,10,30,05,16,0.00
2015,10,30,05,17,0.00
2015,10,30,05,18,0.00
2015,10,30,05,19,0.00
2015,10,30,05,20,0.00
2015,10,30,05,21,0.00
2015,10,30,05,22,1.00
2015,10,30,05,23,0.20
2015,10,30,05,24,0.00
2015,10,30,05,25,0.00
2015,10,30,05,26,0.00
2015,10,30,05,27,0.10
2015,10,30,05,28,0.00
2015,10,30,05,29,0.00
2015,10,30,05,30,0.00
2015,10,30,05,31,0.00
2015,10,30,05,32,0.00
2015,10,30,05,33,0.00
2015,10,30,05,34,0.00
2015,10,30,05,35,0.00
2015,10,30,05,36,0.00
2015,10,30,05,37,0.00
2015,10,30,05,38,0.00
2015,10,30,05,39,0.00
2015,10,30,05,40,0.00
2015,10,30,05,41,0.00
2015,10,30,05,42,0.00
2015,10,30,05,43,0.00
2015,10,30,05,44,0.00
2015,10,30,05,45,0.00
2015,10,30,05,46,0.00
2015,10,30,05,47,0.00
2015,10,30,05,48,0.00
2015,10,30,05,49,0.00
2015,10,30,05,50,0.00
2015,10,30,05,51,0.00
2015,10,30,05,52,0.00
2015,10,30,05,53,0.00
2015,10,30,05,54,0.00
2015,10,30,05,55,0.00
2015,10,30,05,56,0.00
2015,10,30,05,57,0.00
2015,10,30,05,58,0.00
2015,10,30,05,59,0.00
2015,10,30,06,00,0.00
2015,10,30,06,01,0.00
2015,10,30,06,02,0.00
2015,10,30,06,03,0.00
2015,10,30,06,04,0.00
2015,10,30,06,05,0.00
2015,10,30,06,06,0.10
2015,10,30,06,07,0.00
2015,10,30,06,08,0.00
2015,10,30,06,09,0.00
2015,10,30,06,10,0.00
2015,10,30,06,11,0.00
2015,10,30,06,12,0.00
2015,10,30,06,13,0.00
2015,10,30,06,14,0.00
2015,10,30,06,15,0.00
2015,10,30,06,16,0.00
2015,10,30,06,17,0.00
2015,10,30,06,18,0.00
2015,10,30,06,19,0.00
2015,10,30,06,20,0.00
2015,10,30,06,21,0.00
2015,10,30,06,22,0.00
2015,10,30,06,23,0.00
2015,10,30,06,24,0.00
2015,10,30,06,25,0.00
2015,10,30,06,26,0.00
2015,10,30,06,27,0.00
2015,10,30,06,28,0.00
2015,10,30,06,29,0.00
2015,10,30,06,30,0.00
2015,10,30,06,31,0.00
2015,10,30,06,32,0.00
2015,10,30,06,33,0.00
2015,10,30,06,34,0.00
2015,10,30,06,35,0.00
2015,10,30,06,36,0.00
2015,10,30,06,37,0.00
2015,10,30,06,38,0.30
2015,10,30,06,39,3.20
2015,10,30,06,40,0.10
2015,10,30,06,41,0.00
2015,10,30,06,42,0.00
2015,10,30,06,43,2.20
2015,10,30,06,44,0.30
2015,10,30,06,45,0.00
2015,10,30,06,46,0.00
2015,10,30,06,47,0.00
2015,10,30,06,48,0.10
2015,10,30,06,49,0.10
2015,10,30,06,50,0.00
2015,10,30,06,51,0.00
2015,10,30,06,52,0.10
2015,10,30,06,53,0.00
2015,10,30,06,54,0.00
2015,10,30,06,55,0.00
2015,10,30,06,56,0.00
2015,10,30,06,57,0.00
2015,10,30,06,58,1.20
2015,10,30,06,59,0.00
2015,10,30,07,00,0.00
2015,10,30,07,01,0.00
2015,10,30,07,02,0.00
2015,10,30,07,03,0.00
2015,10,30,07,04,0.10
2015,10,30,07,05,1.00
2015,10,30,07,06,0.30
2015,10,30,07,07,0.00
2015,10,30,07,08,0.00
2015,10,30,07,09,0.00
2015,10,30,07,10,0.00
2015,10,30,07,11,0.00
2015,10,30,07,12,0.00
2015,10,30,07,13,0.00
2015,10,30,07,14,0.00
2015,10,30,07,15,0.00
2015,10,30,07,16,0.00
2015,10,30,07,17,0.00
2015,10,30,07,18,0.00
2015,10,30,07,19,0.00
2015,10,30,07,20,0.00
2015,10,30,07,21,0.00
2015,10,30,07,22,0.10
2015,10,30,07,23,0.00
2015,10,30,07,24,0.00
2015,10,30,07,25,0.00
2015,10,30,07,26,0.10
2015,10,30,07,27,0.00
2015,10,30,07,28,3.60
2015,10,30,07,29,0.90
2015,10,30,07,30,1.00
2015,10,30,07,31,0.30
2015,10,30,07,32,0.00
2015,10,30,07,33,0.00
2015,10,30,07,34,0.00
2015,10,30,07,35,0.00
2015,10,30,07,36,0.00
2015,10,30,07,37,2.60
2015,10,30,07,38,1.40
2015,10,30,07,39,6.40
2015,10,30,07,40,3.70
2015,10,30,07,41,6.90
2015,10,30,07,42,4.00
2015,10,30,07,43,1.90
2015,10,30,07,44,0.00
2015,10,30,07,45,1.20
2015,10,30,07,46,1.20
2015,10,30,07,47,1.40
2015,10,30,07,48,3.80
2015,10,30,07,49,3.50
2015,10,30,07,50,2.90
2015,10,30,07,51,0.20
2015,10,30,07,52,0.00
2015,10,30,07,53,0.00
2015,10,30,07,54,0.00
2015,10,30,07,55,0.00
2015,10,30,07,56,0.00
2015,10,30,07,57,0.00
2015,10,30,07,58,0.90
2015,10,30,07,59,2.40
2015,10,30,08,00,4.20
2015,10,30,08,01,0.30
2015,10,30,08,02,0.00
2015,10,30,08,03,0.00
2015,10,30,08,04,0.00
2015,10,30,08,05,0.00
2015,10,30,08,06,0.00
2015,10,30,08,07,1.40
2015,10,30,08,08,1.40
2015,10,30,08,09,0.00
2015,10,30,08,10,0.00
2015,10,30,08,11,0.00
2015,10,30,08,12,0.10
2015,10,30,08,13,0.00
2015,10,30,08,14,0.00
2015,10,30,08,15,0.00
2015,10,30,08,16,0.00
2015,10,30,08,17,0.00
2015,10,30,08,18,0.00
2015,10,30,08,19,0.00
2015,10,30,08,20,0.00
2015,10,30,08,21,0.00
2015,10,30,08,22,0.00
2015,10,30,08,23,0.00
2015,10,30,08,24,0.00
2015,10,30,08,25,0.00
2015,10,30,08,26,0.00
2015,10,30,08,27,0.00
2015,10,30,08,28,0.00
2015,10,30,08,29,0.00
2015,10,30,08,30,0.10
2015,10,30,08,31,0.00
2015,10,30,08,32,0.00
2015,10,30,08,33,0.00
2015,10,30,08,34,0.00
2015,10,30,08,35,0.00
2015,10,30,08,36,0.00
2015,10,30,08,37,0.10
2015,10,30,08,38,0.00
2015,10,30,08,39,0.00
2015,10,30,08,40,0.10
2015,10,30,08,41,3.50
2015,10,30,08,42,2.00
2015,10,30,08,43,0.00
2015,10,30,08,44,0.00
2015,10,30,08,45,3.10
2015,10,30,08,46,2.30
2015,10,30,08,47,0.00
2015,10,30,08,48,0.10
2015,10,30,08,49,3.90
2015,10,30,08,50,1.40
2015,10,30,08,51,1.70
2015,10,30,08,52,1.00
2015,10,30,08,53,0.00
2015,10,30,08,54,0.00
2015,10,30,08,55,0.00
2015,10,30,08,56,0.00
2015,10,30,08,57,0.00
2015,10,30,08,58,0.00
2015,10,30,08,59,1.80
2015,10,30,09,00,0.00
2015,10,30,09,01,0.00
2015,10,30,09,02,0.00
2015,10,30,09,03,3.40
2015,10,30,09,04,3.60
2015,10,30,09,05,4.10
2015,10,30,09,06,5.60
2015,10,30,09,07,7.70
2015,10,30,09,08,8.50
2015,10,30,09,09,7.90
2015,10,30,09,10,7.40
2015,10,30,09,11,14.20
2015,10,30,09,12,9.00
2015,10,30,09,13,11.90
2015,10,30,09,14,23.40
2015,10,30,09,15,10.90
2015,10,30,09,16,23.60
2015,10,30,09,17,20.20
2015,10,30,09,18,22.90
2015,10,30,09,19,27.20
2015,10,30,09,20,26.30
2015,10,30,09,21,14.80
2015,10,30,09,22,21.60
2015,10,30,09,23,20.00
2015,10,30,09,24,14.50
2015,10,30,09,25,21.20
2015,10,30,09,26,18.50
2015,10,30,09,27,21.90
2015,10,30,09,28,14.60
2015,10,30,09,29,24.30
2015,10,30,09,30,19.70
2015,10,30,09,31,22.80
2015,10,30,09,32,23.50
2015,10,30,09,33,20.70
2015,10,30,09,34,23.70
2015,10,30,09,35,19.20
2015,10,30,09,36,18.90
2015,10,30,09,37,23.40
2015,10,30,09,38,24.60
2015,10,30,09,39,18.20
2015,10,30,09,40,15.40
2015,10,30,09,41,16.60
2015,10,30,09,42,27.60
2015,10,30,09,43,19.00
2015,10,30,09,44,16.70
2015,10,30,09,45,17.10
2015,10,30,09,46,29.50
2015,10,30,09,47,23.50
2015,10,30,09,48,29.40
2015,10,30,09,49,19.30
2015,10,30,09,50,16.70
2015,10,30,09,51,15.40
2015,10,30,09,52,27.30
2015,10,30,09,53,23.00
2015,10,30,09,54,26.70
2015,10,30,09,55,29.80
2015,10,30,09,56,24.20
2015,10,30,09,57,21.00
2015,10,30,09,58,30.00
2015,10,30,09,59,26.30
2015,10,30,10,00,31.20
2015,10,30,10,01,28.90
2015,10,30,10,02,27.20
2015,10,30,10,03,19.30
2015,10,30,10,04,18.10
2015,10,30,10,05,23.90
2015,10,30,10,06,26.80
2015,10,30,10,07,31.40
2015,10,30,10,08,29.30
2015,10,30,10,09,27.20
2015,10,30,10,10,25.70
2015,10,30,10,11,20.80
2015,10,30,10,12,33.50
2015,10,30,10,13,37.60
2015,10,30,10,14,24.20
2015,10,30,10,15,19.20
2015,10,30,10,16,23.30
2015,10,30,10,17,25.30
2015,10,30,10,18,30.70
2015,10,30,10,19,25.40
2015,10,30,10,20,25.10
2015,10,30,10,21,32.30
2015,10,30,10,22,34.40
2015,10,30,10,23,19.40
2015,10,30,10,24,14.60
2015,10,30,10,25,18.80
2015,10,30,10,26,24.20
2015,10,30,10,27,24.20
2015,10,30,10,28,20.30
2015,10,30,10,29,22.20
2015,10,30,10,30,23.30
2015,10,30,10,31,28.10
2015,10,30,10,32,25.80
2015,10,30,10,33,16.70
2015,10,30,10,34,30.00
2015,10,30,10,35,30.10
2015,10,30,10,36,23.10
2015,10,30,10,37,18.30
2015,10,30,10,38,20.20
2015,10,30,10,39,33.70
2015,10,30,10,40,30.20
2015,10,30,10,41,35.90
2015,10,30,10,42,23.80
2015,10,30,10,43,24.20
2015,10,30,10,44,27.00
2015,10,30,10,45,21.80
2015,10,30,10,46,30.40
2015,10,30,10,47,26.10
2015,10,30,10,48,28.40
2015,10,30,10,49,28.20
2015,10,30,10,50,29.00
2015,10,30,10,51,25.40
2015,10,30,10,52,28.60
2015,10,30,10,53,27.00
2015,10,30,10,54,23.30
2015,10,30,10,55,26.80
2015,10,30,10,56,33.10
2015,10,30,10,57,33.40
2015,10,30,10,58,23.20
2015,10,30,10,59,19.50
2015,10,30,11,00,12.00
2015,10,30,11,01,24.30
2015,10,30,11,02,25.80
2015,10,30,11,03,24.80
2015,10,30,11,04,34.10
2015,10,30,11,05,28.00
2015,10,30,11,06,24.20
2015,10,30,11,07,17.40
2015,10,30,11,08,27.60
2015,10,30,11,09,20.10
2015,10,30,11,10,27.70
2015,10,30,11,11,23.30
2015,10,30,11,12,21.90
2015,10,30,11,13,28.00
2015,10,30,11,14,36.10
2015,10,30,11,15,28.40
2015,10,30,11,16,15.90
2015,10,30,11,17,30.70
2015,10,30,11,18,27.30
2015,10,30,11,19,37.50
2015,10,30,11,20,27.90
2015,10,30,11,21,22.50
2015,10,30,11,22,20.40
2015,10,30,11,23,26.50
2015,10,30,11,24,18.70
2015,10,30,11,25,23.60
2015,10,30,11,26,19.20
2015,10,30,11,27,28.00
2015,10,30,11,28,23.30
2015,10,30,11,29,22.30
2015,10,30,11,30,30.00
2015,10,30,11,31,23.90
2015,10,30,11,32,27.40
2015,10,30,11,33,25.30
2015,10,30,11,34,29.60
2015,10,30,11,35,19.80
2015,10,30,11,36,18.70
2015,10,30,11,37,20.40
2015,10,30,11,38,26.20
2015,10,30,11,39,20.90
2015,10,30,11,40,31.30
2015,10,30,11,41,27.50
2015,10,30,11,42,18.50
2015,10,30,11,43,23.80
2015,10,30,11,44,26.10
2015,10,30,11,45,24.10
2015,10,30,11,46,21.30
2015,10,30,11,47,20.80
2015,10,30,11,48,17.30
2015,10,30,11,49,13.90
2015,10,30,11,50,15.60
2015,10,30,11,51,19.60
2015,10,30,11,52,16.50
2015,10,30,11,53,18.90
2015,10,30,11,54,20.20
2015,10,30,11,55,19.60
2015,10,30,11,56,19.00
2015,10,30,11,57,17.80
2015,10,30,11,58,22.20
2015,10,30,11,59,23.70
2015,10,30,12,00,26.00
2015,10,30,12,01,22.00
2015,10,30,12,02,21.20
2015,10,30,12,03,20.90
2015,10,30,12,04,19.80
2015,10,30,12,05,20.40
2015,10,30,12,06,17.10
2015,10,30,12,07,24.40
2015,10,30,12,08,20.60
2015,10,30,12,09,25.30
2015,10,30,12,10,20.80
2015,10,30,12,11,19.20
2015,10,30,12,12,15.00
2015,10,30,12,13,21.20
2015,10,30,12,14,23.10
2015,10,30,12,15,19.60
2015,10,30,12,16,12.50
2015,10,30,12,17,16.20
2015,10,30,12,18,27.60
2015,10,30,12,19,23.60
2015,10,30,12,20,16.40
2015,10,30,12,21,22.20
2015,10,30,12,22,17.60
2015,10,30,12,23,19.90
2015,10,30,12,24,24.80
2015,10,30,12,25,22.00
2015,10,30,12,26,20.20
2015,10,30,12,27,19.70
2015,10,30,12,28,16.90
2015,10,30,12,29,28.80
2015,10,30,12,30,22.30
2015,10,30,12,31,20.50
2015,10,30,12,32,18.90
2015,10,30,12,33,14.60
2015,10,30,12,34,13.40
2015,10,30,12,35,23.70
2015,10,30,12,36,22.10
2015,10,30,12,37,21.30
2015,10,30,12,38,18.80
2015,10,30,12,39,24.20
2015,10,30,12,40,17.50
2015,10,30,12,41,21.30
2015,10,30,12,42,26.40
2015,10,30,12,43,19.70
2015,10,30,12,44,18.80
2015,10,30,12,45,25.00
2015,10,30,12,46,24.90
2015,10,30,12,47,19.80
2015,10,30,12,48,27.40
2015,10,30,12,49,25.20
2015,10,30,12,50,18.40
2015,10,30,12,51,15.50
2015,10,30,12,52,16.00
2015,10,30,12,53,14.30
2015,10,30,12,54,16.70
2015,10,30,12,55,10.10
2015,10,30,12,56,14.70
2015,10,30,12,57,13.50
2015,10,30,12,58,9.20
2015,10,30,12,59,7.90
2015,10,30,13,00,12.30
2015,10,30,13,01,13.60
2015,10,30,13,02,15.70
2015,10,30,13,03,9.90
2015,10,30,13,04,20.70
2015,10,30,13,05,21.30
2015,10,30,13,06,13.20
2015,10,30,13,07,11.80
2015,10,30,13,08,23.20
2015,10,30,13,09,16.00
2015,10,30,13,10,14.60
2015,10,30,13,11,19.60
2015,10,30,13,12,25.00
2015,10,30,13,13,21.30
2015,10,30,13,14,29.90
2015,10,30,13,15,21.20
2015,10,30,13,16,13.70
2015,10,30,13,17,15.70
2015,10,30,13,18,23.50
2015,10,30,13,19,17.50
2015,10,30,13,20,15.50
2015,10,30,13,21,15.70
2015,10,30,13,22,17.60
2015,10,30,13,23,17.80
2015,10,30,13,24,15.80
2015,10,30,13,25,17.70
2015,10,30,13,26,13.60
2015,10,30,13,27,23.90
2015,10,30,13,28,25.60
2015,10,30,13,29,17.70
2015,10,30,13,30,19.70
2015,10,30,13,31,26.50
2015,10,30,13,32,19.70
2015,10,30,13,33,14.30
2015,10,30,13,34,14.50
2015,10,30,13,35,9.20
2015,10,30,13,36,16.80
2015,10,30,13,37,19.90
2015,10,30,13,38,21.60
2015,10,30,13,39,11.90
2015,10,30,13,40,21.20
2015,10,30,13,41,27.30
2015,10,30,13,42,14.60
2015,10,30,13,43,13.20
2015,10,30,13,44,10.30
2015,10,30,13,45,17.90
2015,10,30,13,46,21.00
2015,10,30,13,47,18.60
2015,10,30,13,48,16.20
2015,10,30,13,49,13.00
2015,10,30,13,50,15.70
2015,10,30,13,51,13.70
2015,10,30,13,52,12.40
2015,10,30,13,53,22.00
2015,10,30,13,54,13.60
2015,10,30,13,55,12.10
2015,10,30,13,56,15.60
2015,10,30,13,57,16.30
2015,10,30,13,58,19.10
2015,10,30,13,59,11.60
2015,10,30,14,00,17.20
2015,10,30,14,01,11.80
2015,10,30,14,02,10.70
2015,10,30,14,03,9.00
2015,10,30,14,04,29.90
2015,10,30,14,05,16.30
2015,10,30,14,06,16.40
2015,10,30,14,07,20.00
2015,10,30,14,08,16.10
2015,10,30,14,09,13.30
2015,10,30,14,10,18.40
2015,10,30,14,11,11.00
2015,10,30,14,12,15.00
2015,10,30,14,13,18.30
2015,10,30,14,14,19.70
2015,10,30,14,15,21.60
2015,10,30,14,16,18.70
2015,10,30,14,17,19.10
2015,10,30,14,18,15.90
2015,10,30,14,19,23.40
2015,10,30,14,20,26.00
2015,10,30,14,21,22.60
2015,10,30,14,22,13.80
2015,10,30,14,23,20.20
2015,10,30,14,24,25.00
2015,10,30,14,25,31.10
2015,10,30,14,26,23.00
2015,10,30,14,27,22.30
2015,10,30,14,28,27.00
2015,10,30,14,29,24.90
2015,10,30,14,30,24.20
2015,10,30,14,31,19.90
2015,10,30,14,32,15.80
2015,10,30,14,33,16.60
2015,10,30,14,34,15.30
2015,10,30,14,35,19.90
2015,10,30,14,36,19.20
2015,10,30,14,37,23.90
2015,10,30,14,38,19.90
2015,10,30,14,39,15.60
2015,10,30,14,40,19.20
2015,10,30,14,41,14.50
2015,10,30,14,42,24.80
2015,10,30,14,43,18.10
2015,10,30,14,44,17.90
2015,10,30,14,45,17.20
2015,10,30,14,46,19.00
2015,10,30,14,47,12.80
2015,10,30,14,48,20.40
2015,10,30,14,49,10.30
2015,10,30,14,50,15.60
2015,10,30,14,51,15.60
2015,10,30,14,52,12.80
2015,10,30,14,53,15.10
2015,10,30,14,54,15.80
2015,10,30,14,55,16.00
2015,10,30,14,56,17.00
2015,10,30,14,57,16.30
2015,10,30,14,58,17.40
2015,10,30,14,59,14.30
2015,10,30,15,00,16.40
2015,10,30,15,01,9.10
2015,10,30,15,02,5.10
2015,10,30,15,03,14.20
2015,10,30,15,04,18.70
2015,10,30,15,05,13.60
2015,10,30,15,06,11.70
2015,10,30,15,07,13.00
2015,10,30,15,08,15.50
2015,10,30,15,09,12.20
2015,10,30,15,10,17.50
2015,10,30,15,11,22.10
2015,10,30,15,12,22.00
2015,10,30,15,13,24.80
2015,10,30,15,14,14.70
2015,10,30,15,15,15.40
2015,10,30,15,16,17.10
2015,10,30,15,17,20.60
2015,10,30,15,18,24.00
2015,10,30,15,19,24.60
2015,10,30,15,20,25.80
2015,10,30,15,21,18.50
2015,10,30,15,22,20.30
2015,10,30,15,23,15.10
2015,10,30,15,24,16.60
2015,10,30,15,25,18.10
2015,10,30,15,26,15.90
2015,10,30,15,27,9.70
2015,10,30,15,28,19.30
2015,10,30,15,29,17.90
2015,10,30,15,30,15.70
2015,10,30,15,31,24.20
2015,10,30,15,32,12.60
2015,10,30,15,33,21.40
2015,10,30,15,34,13.10
2015,10,30,15,35,14.10
2015,10,30,15,36,16.80
2015,10,30,15,37,14.90
2015,10,30,15,38,9.30
2015,10,30,15,39,9.00
2015,10,30,15,40,6.30
2015,10,30,15,41,9.00
2015,10,30,15,42,9.50
2015,10,30,15,43,17.80
2015,10,30,15,44,14.50
2015,10,30,15,45,16.80
2015,10,30,15,46,17.20
2015,10,30,15,47,14.60
2015,10,30,15,48,12.10
2015,10,30,15,49,14.10
2015,10,30,15,50,9.80
2015,10,30,15,51,10.90
2015,10,30,15,52,9.30
2015,10,30,15,53,10.00
2015,10,30,15,54,10.90
2015,10,30,15,55,5.90
2015,10,30,15,56,11.30
2015,10,30,15,57,12.90
2015,10,30,15,58,15.30
2015,10,30,15,59,7.10
2015,10,30,16,00,7.20
2015,10,30,16,01,12.70
2015,10,30,16,02,10.60
2015,10,30,16,03,11.10
2015,10,30,16,04,17.50
2015,10,30,16,05,14.80
2015,10,30,16,06,12.40
2015,10,30,16,07,5.30
2015,10,30,16,08,4.90
2015,10,30,16,09,8.10
2015,10,30,16,10,6.30
2015,10,30,16,11,6.30
2015,10,30,16,12,13.10
2015,10,30,16,13,13.00
2015,10,30,16,14,8.10
2015,10,30,16,15,9.90
2015,10,30,16,16,8.10
2015,10,30,16,17,13.30
2015,10,30,16,18,10.50
2015,10,30,16,19,6.80
2015,10,30,16,20,4.20
2015,10,30,16,21,4.20
2015,10,30,16,22,3.10
2015,10,30,16,23,5.60
2015,10,30,16,24,15.10
2015,10,30,16,25,10.70
2015,10,30,16,26,9.70
2015,10,30,16,27,6.50
2015,10,30,16,28,10.30
2015,10,30,16,29,9.70
2015,10,30,16,30,5.10
2015,10,30,16,31,5.20
2015,10,30,16,32,6.90
2015,10,30,16,33,12.00
2015,10,30,16,34,6.10
2015,10,30,16,35,5.80
2015,10,30,16,36,10.60
2015,10,30,16,37,7.10
2015,10,30,16,38,7.60
2015,10,30,16,39,8.90
2015,10,30,16,40,9.00
2015,10,30,16,41,6.50
2015,10,30,16,42,6.60
2015,10,30,16,43,8.70
2015,10,30,16,44,12.20
2015,10,30,16,45,13.80
2015,10,30,16,46,15.40
2015,10,30,16,47,15.00
2015,10,30,16,48,11.40
2015,10,30,16,49,17.60
2015,10,30,16,50,13.90
2015,10,30,16,51,14.60
2015,10,30,16,52,12.60
2015,10,30,16,53,9.40
2015,10,30,16,54,4.80
2015,10,30,16,55,2.10
2015,10,30,16,56,7.60
2015,10,30,16,57,12.20
2015,10,30,16,58,11.60
2015,10,30,16,59,9.50
2015,10,30,17,00,5.80
2015,10,30,17,01,9.70
2015,10,30,17,02,11.20
2015,10,30,17,03,10.10
2015,10,30,17,04,7.20
2015,10,30,17,05,5.90
2015,10,30,17,06,0.00
2015,10,30,17,07,0.40
2015,10,30,17,08,0.70
2015,10,30,17,09,0.00
2015,10,30,17,10,0.00
2015,10,30,17,11,0.00
2015,10,30,17,12,0.00
2015,10,30,17,13,0.00
2015,10,30,17,14,0.00
2015,10,30,17,15,0.10
2015,10,30,17,16,0.00
2015,10,30,17,17,0.00
2015,10,30,17,18,0.10
2015,10,30,17,19,0.00
2015,10,30,17,20,0.00
2015,10,30,17,21,0.00
2015,10,30,17,22,0.10
2015,10,30,17,23,0.00
2015,10,30,17,24,1.90
2015,10,30,17,25,11.40
2015,10,30,17,26,4.70
2015,10,30,17,27,3.90
2015,10,30,17,28,2.30
2015,10,30,17,29,1.70
2015,10,30,17,30,2.20
2015,10,30,17,31,8.00
2015,10,30,17,32,2.40
2015,10,30,17,33,6.40
2015,10,30,17,34,3.90
2015,10,30,17,35,2.70
2015,10,30,17,36,0.00
2015,10,30,17,37,0.00
2015,10,30,17,38,0.00
2015,10,30,17,39,0.60
2015,10,30,17,40,0.00
2015,10,30,17,41,2.90
2015,10,30,17,42,7.00
2015,10,30,17,43,3.30
2015,10,30,17,44,3.00
2015,10,30,17,45,2.80
2015,10,30,17,46,0.10
2015,10,30,17,47,1.10